Regional Weather Roundup
Issued by NWS Upton, NY

Home | Current Version | Previous Version | Text Only | Print | Product List | Glossary On
Versions: 1 2 3 4 5 6 7 8 9 10 11 12 13 14 15 16 17 18 19 20 21 22 23 24 25 26 27 28 29 30 31 32 33 34 35 36 37 38 39 40 41 42 43 44 45 46 47 48 49 50
000
ASUS41 KOKX 230409
RWROKX

Regional Weather Roundup
National Weather Service New York NY
1100 PM EST MON JAN 22 2018

Note: "FAIR" indicates few or no clouds below 12,000 feet with no
significant weather and/or obstructions to visibility.

NYZ071-072-176-178-NJZ106-104-230500-
New York City Metro Area

CITY           SKY/WX    TMP DP  RH WIND       PRES   REMARKS
Central Park   FOG       38  38 100 E8        30.10S VSB 1/2 WCI  32
Bronx Bot Gard NOT AVBL
Bronx Lehman C   N/A     37  37 100 E12         N/A  WCI  30
LaGuardia Arpt FOG       37  35  92 NE10      30.08F VSB 1/8 WCI  30
Queens College   N/A     37  37 100 N3          N/A
Kennedy Intl   CLOUDY    43  42  97 NE6       30.08F FOG
Breezy Point     N/A     39 N/A N/A NE7         N/A  WCI  34
Brooklyn Coll    N/A     41  37  87 N5          N/A
Staten Island    N/A     39  37  93 N6          N/A  WCI  35
Newark/Liberty CLOUDY    40  38  93 N8        30.08F FOG     WCI  34
Teterboro      FOG       39  38  96 E7        30.08F VSB 1   WCI  34
$$

NYZ177-179-078>081-230500-
Long Island New York

CITY           SKY/WX    TMP DP  RH WIND       PRES   REMARKS
Jones Beach      N/A     37 N/A N/A NE10        N/A  WCI  30
Wantagh          N/A     43  43 100 NE5         N/A
Matinecock Pt    N/A     36 N/A N/A E18         N/A  WCI  25
Farmingdale    FOG       41  41 100 NE6       30.07F VSB 1/8
MacArthur/ISP  FOG       43  42  97 E3        30.07F VSB 1/16
Shirley        FOG       39  39 100 CALM      30.08F VSB 1/4
Mt Sinai Harb    N/A    N/A N/A N/A NE3         N/A
Westhampton    FOG       43  42  97 E5        30.10F VSB 1/2
East Hampton   FOG       42  41  98 SE3       30.09F VSB 1/2
Southold         N/A     37  37 100 E8          N/A  WCI  31
Montauk          N/A     42  41  96 CALM      30.11F
$$

NYZ052-065-067-230500-
Hudson Valley

CITY           SKY/WX    TMP DP  RH WIND       PRES   REMARKS
White Plains   FOG       38  38 100 E7        30.06F VSB 1/8 WCI  33
Larchmont Harb   N/A     34 N/A N/A NE20        N/A  WCI  22
Croton On Huds   N/A     41 N/A N/A MISG        N/A
Somers           N/A     39  37  93 E7          N/A  WCI  34
Brewster         N/A     37  37 100 E3          N/A
Newburgh       FOG       39  39 100 SE7       30.07F VSB 1/2 WCI  34
Montgomery     FOG       38  37  97 N5        30.06S VSB 3/4 WCI  34
Otisville        N/A     36  36 100 NE2         N/A
Warwick          N/A     39  37  93 E5          N/A
Suffern          N/A     37  37 100 E1          N/A
Poughkeepsie   CLOUDY    38  36  92 CALM      30.06F FOG
Albany         CLOUDY    38  34  85 S9        30.04F WCI  31
$$

NJZ001-105-106-008-010-013-015-019>022-104-230500-
New Jersey

CITY           SKY/WX    TMP DP  RH WIND       PRES   REMARKS
Newark/Liberty CLOUDY    40  38  93 N8        30.08F FOG     WCI  34
Teterboro      FOG       39  38  96 E7        30.08F VSB 1   WCI  34
Caldwell       FOG       38  38 100 E7        30.08F VSB 1   WCI  33
Somerville     MOCLDY    40  39  97 CALM      30.05S FOG
Linden         CLOUDY    41  37  87 CALM      30.08S FOG
Perth Amboy      N/A     37 N/A N/A SE8         N/A  WCI  31
Sussex         CLOUDY    37  36  96 CALM      30.06R FOG
Andover          N/A     38  38 100 CALM      30.05R
Trenton        FAIR      39  37  92 NE6       30.04S WCI  35
Millville      CLOUDY    49  38  65 VRB6      30.03F
Atlantic City  FAIR      48  44  86 SW6       30.06S
Wrightstown    FAIR      48  41  77 S7        30.01S
Toms River     FAIR      34  31  88 CALM      30.06F
Belmar         FAIR      38  37  97 NE3       30.07F FOG
$$

PAZ047>061-062-071-230500-
Eastern Pennsylvania

CITY           SKY/WX    TMP DP  RH WIND       PRES   REMARKS
Philadelphia   FAIR      52  37  56 S8        30.03R
Allentown      FAIR      39  35  86 NE7       30.03R FOG     WCI  34
Scranton       FAIR      46  40  79 SE5       29.96R
$$

CTZ002-004>006-009-010-012-RIZ004-006-007-MAZ004-011-015-230500-
Southern New England

 In CT

CITY           SKY/WX    TMP DP  RH WIND       PRES   REMARKS
Bradley Intl   DRIZZLE   34  34 100 N8        30.13F FOG     WCI  27
Hartford       FOG       37  36  96 N7        30.13F VSB 3/4 WCI  32
Danbury        FOG       39  38  96 E7        30.09F VSB 1/2 WCI  34
Wtrbury/Oxford LGT RAIN  36  36 100 E10       30.09F VSB 1/4 WCI  28
Norwalk Harbor   N/A     36 N/A N/A NE18        N/A  WCI  25
Bridgeport     FOG       39  38  96 E13       30.10F VSB 1/2 WCI  31
Meriden        CLOUDY    38  37  97 N3        30.12F FOG
New Haven      CLOUDY    41  38  89 NE6       30.10F FOG
Chester        FOG       39  39 100 E5        30.10F VSB<1/4
Groton         CLOUDY    42  40  92 E9        30.11F FOG
Willimantic    FOG       38  36  92 CALM      30.13F VSB 3/4

 In RI

CITY           SKY/WX    TMP DP  RH WIND       PRES   REMARKS
Providence     FOG       38  38 100 NE3       30.15F VSB 1/4
Block Island   CLOUDY    43  43 100 SE13      30.12F FOG
Westerly       CLOUDY    42  41  96 E10       30.13F FOG

In MA

CITY           SKY/WX    TMP DP  RH WIND       PRES   REMARKS
Boston         DRIZZLE   38  38 100 E5        30.18F FOG     WCI  34
Worcester      FOG       30  29  96 NE6       30.11F VSB 1/4 WCI  24
Westfield      CLOUDY    33  33 100 N9        30.14F FOG     WCI  25
Provincetown   CLOUDY    42  40  92 MISG      30.16F
Nantucket      CLOUDY    42  42 100 SE15      30.16F
$$

ANZ330-335-338-340-345-350-353-355-230500-
Coastal Marine Observations


STATION/POSITION TIME  SKY/WX   TEMP    WIND        PRES    VSBY  WAVE
                                AIR SEA DIR/SP/G                  HT/PER
                 (UTC)          (F)     (DEG/KT/KT) (MB)    (MI)  (FT/S)
NY Harb Entrance 0250            40 40   70/ 10/ 10 1018.4          2/ 3
20 S Fire Island 0250            45 42  120/  6/  6 1019.2          1/ 4
15 E Barnegat Li 0330               43                N/A           2/ 4
Hudson Canyon    0250            52 49  140/ 10/ 10 1019.1          2/ 4
Kings Point      0336            36 34   60/  5/  6 1019.6
Execution Rocks  NOT AVBL
Western LI Sound NOT AVBL
Central LI Sound NOT AVBL
Robbins Reef     0348            38      50/ 10/ 14 1019.1
$$


>>>>>>>>>>>>>>>>>>>>>>>>>>>> KEY <<<<<<<<<<<<<<<<<<<<<<<<<<<
>                                                          <
>     SKY/WX - Sky Condition/Present Weather               <
>     TMP    - Temperature in Fahrenheit                   <
>     DP     - Dew Point in Fahrenheit                     <
>     RH     - Relative Humidity in Percent                <
>     WIND   - Direction (from) and Speed in MPH           <
>     PRES   - Mean Sea Level Pressure (inches of Hg)      <
>     WCI    - Wind Chill Index                            <
>     VSB    - Visibility in Miles                         <
>     HX     - Heat Index                                  <
>     TC     - Temperature in Celsius                      <
>     VRB    - Varibale Wind Direction                     <
>                                                          <
>>>>>>>>>>>>>>>>>>>>>>>>>>>> KEY <<<<<<<<<<<<<<<<<<<<<<<<<<<



USA.gov is the U.S. government's official web portal to all federal, state and local government web resources and services.